Location: Anuling
(14.1239°N, 120.8922°E)
Time: 14:41:42
(UTC+00:00)

Milstar 3 - Visible Passes

Search period start: 19 April 2026 00:00
Search period end: 29 April 2026 00:00
Orbit: 1097 x 5148 km, 28.2° (Epoch: 19 April)

Date Brightness Start Highest point End Pass type
(mag) Time Alt. Az. Time Alt. Az. Time Alt. Az.
19 Apr 3.1 11:49:33 10° WSW 11:56:31 81° SSE 12:01:44 32° ENE visible
19 Apr 5.3 14:33:07 10° W 14:54:33 23° ENE 15:01:53 10° ENE visible
19 Apr 5.4 17:28:07 45° NNW 17:34:51 58° NNE 18:05:05 10° E visible
19 Apr 6.0 20:05:01 10° WNW 20:30:49 89° SSW 21:03:47 10° ESE visible
20 Apr 3.2 10:48:33 10° SW 10:54:58 51° SSE 11:03:44 10° ENE visible
20 Apr 4.2 13:31:23 10° W 13:56:35 - ENE 13:38:10 51° NW visible
20 Apr 5.3 16:30:08 51° NNE 16:30:08 51° NNE 16:55:30 10° E visible
20 Apr 5.8 19:03:42 16° WNW 19:23:55 79° NNE 19:57:32 10° ESE visible
21 Apr 3.6 12:29:47 10° WSW 12:37:03 66° NNW 12:40:57 41° NE visible
21 Apr 5.7 15:14:06 10° WNW 15:32:15 35° NE 15:46:09 10° ENE visible
21 Apr 5.6 18:05:50 34° NW 18:17:35 68° NNE 18:49:48 10° ESE visible
21 Apr 6.1 20:46:29 10° WNW 21:13:26 72° SSW 21:45:15 10° SE visible
22 Apr 3.0 11:28:22 10° WSW 11:35:06 89° NNW 11:43:41 15° ENE visible
22 Apr 4.8 14:12:16 10° WNW 14:34:29 16° ENE 14:38:01 10° ENE visible
22 Apr 5.3 17:08:04 53° NNW 17:12:00 58° NNE 17:40:50 10° E visible
22 Apr 5.8 19:42:45 10° WNW 20:06:31 85° SSW 20:40:01 10° ESE visible
23 Apr 3.0 10:27:05 10° SW 10:33:34 60° SSE 10:41:44 10° ENE visible
23 Apr 4.2 13:10:30 10° W 13:18:08 48° N 13:19:59 45° NNE visible
23 Apr 5.4 16:10:25 47° NE 16:10:25 47° NE 16:31:16 10° E visible
23 Apr 5.6 18:44:00 24° WNW 19:00:04 82° NNE 19:33:26 10° ESE visible
24 Apr 3.7 12:08:49 10° W 12:15:41 57° NNW 12:22:36 22° NE visible
24 Apr 5.3 14:53:08 10° WNW 15:12:52 26° ENE 15:22:10 10° ENE visible
24 Apr 5.3 17:46:29 47° NW 17:54:19 70° NNE 18:25:30 10° ESE visible
24 Apr 6.0 20:24:07 10° WNW 20:49:02 68° SSW 21:21:31 10° SE visible
25 Apr 3.1 11:07:10 10° WSW 11:13:47 77° NNW 11:22:52 10° ENE visible
25 Apr 4.6 13:51:25 10° WNW 14:15:27 - ENE 13:58:44 41° N visible
25 Apr 5.2 16:49:05 59° NNE 16:49:20 59° NNE 17:16:29 10° E visible
25 Apr 5.7 19:22:43 16° WNW 19:42:25 81° SSW 20:15:55 10° SE visible
26 Apr 4.3 12:49:40 10° WNW 12:56:45 43° N 13:01:10 30° NE visible
26 Apr 5.6 15:33:48 10° WNW 15:51:47 38° ENE 16:07:08 10° E visible
26 Apr 5.4 18:25:26 39° WNW 18:36:27 86° NNE 19:09:04 10° ESE visible
26 Apr 6.2 21:06:17 10° WNW 21:31:45 51° SSW 22:02:15 10° SE visible
27 Apr 3.8 11:47:50 10° W 11:54:23 49° NNW 12:03:31 11° ENE visible
27 Apr 5.0 14:32:13 10° WNW 14:54:36 16° ENE 14:58:25 10° ENE visible
27 Apr 5.0 17:28:16 66° NNW 17:31:15 73° NNE 18:01:01 10° ESE visible
27 Apr 5.9 20:01:59 10° WNW 20:24:53 63° SSW 20:57:27 10° SE visible
28 Apr 3.2 10:45:57 10° WSW 10:52:31 66° NNW 11:00:41 10° ENE visible
28 Apr 4.6 13:30:35 10° WNW 13:38:11 38° N 13:39:23 37° NNE visible
28 Apr 5.3 16:31:09 53° ENE 16:31:09 53° ENE 16:52:09 10° E visible
28 Apr 5.5 19:04:49 31° WNW 19:18:35 76° SSW 19:51:32 10° SE visible
